Location: Gälforsberget
(66.6500°N, 22.4167°E)
Time: 09:45:28
(UTC+00:00)

Cosmos 1536 Rocket - Pass Details

Date: 11 April 2026
Orbit: 598 x 625 km, 82.5° (Epoch: 19 May)

Event Time Altitude Azimuth Distance (km) Brightness Sun altitude
Rises 20:27:45 0° 338° (NNW) 2,879 8.9 -11.5°
Reaches altitude 10° 20:30:06 10° 347° (NNW) 1,967 7.4 -11.6°
Maximum altitude 20:34:12 39° 57° (ENE) 911 4.4 -11.8°
Enters shadow 20:37:31 14° 123° (ESE) 1,673 5.2 -12.0°
